#timestamp,LO_Frequency,Hit,StdDev 
1646301615.1,286047000.3,N
1646301616.0,286047000.3,N
1646301635.8,286046999.0,N
1646301655.7,286046997.3,N
1646301675.5,286046998.9,N
1646301695.3,286046999.4,N
1646301715.2,286046998.2,N
1646301735.0,286046998.2,N
1646301735.9,286046998.2,N
1646301755.8,286046999.2,N
1646301775.6,286046998.2,N
1646301795.4,286047000.8,N
1646301815.3,286047001.1,N
1646301835.1,286046998.6,N
1646301855.8,286046999.0,N
1646301875.7,286046997.2,N
1646301895.5,286046999.5,N
1646301915.4,286046997.4,N
1646301935.2,286046997.8,N
1646301955.0,286046997.8,N
1646301955.9,286046997.8,N
1646301975.8,286046995.4,Y
1646301995.6,286046997.0,P
1646302015.4,286046995.4,P
1646302035.3,286046997.4,N
1646302055.1,286046999.1,N
1646302075.9,286046998.4,N
1646302095.7,286046999.5,N
1646302115.5,286046998.9,N
1646302135.4,286046997.1,N
1646302155.2,286046997.6,N
1646302175.0,286046995.2,Y
1646302175.9,286046995.2,P
1646302195.8,286046998.5,N
1646302215.6,286046999.3,N
1646302235.5,286046998.8,N
1646302255.3,286046998.5,N
1646302275.1,286046998.6,N
1646302295.9,286046999.4,N
1646302315.7,286046997.0,N
1646302335.6,286046999.6,N
1646302355.4,286046999.5,N
1646302375.2,286046999.0,N
1646302395.1,286046996.9,N
1646302396.0,286046996.9,N
1646302415.8,286046998.3,N
1646302435.7,286047001.0,N
1646302455.5,286047000.6,N
1646302475.3,286047001.1,N
1646302495.2,286046999.9,N
1646302515.0,286046998.4,N
1646302515.9,286046998.4,N
1646302535.7,286046999.3,N
1646302555.6,286046999.6,N
1646302575.4,286046998.5,N
1646302595.3,286046999.5,N
1646302615.1,286046999.6,N
1646302616.0,286046999.6,N
1646302635.8,286046999.6,N
1646302655.7,286046996.9,N
1646302675.5,286046996.5,N
1646302695.3,286046996.6,N
1646302715.2,286046997.4,N
1646302735.0,286046994.9,Y
1646302735.9,286046994.9,P
1646302755.8,286046999.6,N
1646302775.6,286046998.8,N
1646302795.4,286046999.3,N
1646302815.3,286046999.1,N
1646302835.1,286046997.3,N
1646302855.9,286046997.3,N
1646302875.7,286046997.8,N
1646302895.5,286046996.6,N
1646302915.4,286046999.0,N
1646302935.2,286046998.5,N
1646302955.0,286046999.4,N
1646302955.9,286046999.4,N
1646302975.8,286046999.1,N
1646302995.6,286046996.9,N
1646303015.5,286046996.6,N
1646303035.3,286046999.6,N
1646303055.1,286046997.1,N
1646303075.9,286046997.2,N
1646303095.7,286046997.2,N
1646303115.6,286046995.2,Y
1646303135.4,286046999.4,P
1646303155.2,286046996.8,P
1646303175.1,286046999.0,N
1646303176.0,286046999.0,N
1646303195.8,286046999.0,N
1646303215.7,286046999.3,N
1646303235.5,286046996.6,Y
1646303255.3,286047000.8,P
1646303275.2,286047000.7,N
1646303295.0,286047000.4,N
1646303295.9,286047000.4,N
1646303315.8,286047000.7,N
1646303335.6,286047000.9,N
1646303355.4,286047000.8,N
1646303375.3,286046998.4,N
1646303395.1,286046996.8,Y
1646303415.8,286046996.7,P
1646303435.7,286046996.8,N
1646303455.5,286046997.2,N
1646303475.4,286047001.2,N
1646303495.2,286047000.0,N
1646303515.0,286046999.8,N
1646303515.9,286046999.8,N
1646303535.8,286047000.8,N
1646303555.6,286046998.2,N
1646303575.4,286046998.2,N
1646303595.3,286046998.2,N
1646303615.1,286047001.8,N
1646303635.9,286047002.0,N
1646303655.7,286047001.8,N
1646303675.5,286047002.1,N
1646303695.4,286047002.1,N
1646303715.2,286046999.8,N
1646303735.1,286047002.3,N
1646303736.0,286047002.3,N
1646303755.8,286047004.1,N
1646303775.6,286047003.9,N
1646303795.5,286047003.8,N
1646303815.3,286047004.2,N
1646303835.2,286047001.7,N
1646303855.9,286047002.5,N
1646303875.7,286047001.9,N
1646303895.6,286047003.7,N
1646303915.4,286047004.4,N
1646303935.2,286047004.4,N
1646303955.1,286047004.3,N
1646303956.0,286047004.3,N
1646303975.8,286047003.9,N
1646303995.7,286047004.2,N
1646304015.5,286047005.9,Y
1646304035.3,286047002.1,P
1646304055.2,286047004.3,P
1646304075.0,286047001.4,N
1646304075.9,286047001.4,N
1646304095.8,286047004.3,Y
1646304115.6,286046999.9,P
1646304135.4,286047000.5,N
1646304155.3,286047000.7,N
1646304175.1,286046998.6,N
1646304195.8,286047000.3,N
1646304215.7,286046999.9,N
1646304235.5,286047000.1,N
1646304255.4,286046999.7,N
1646304275.2,286047001.4,N
1646304295.0,286046999.8,N
1646304295.9,286046999.8,N
1646304315.8,286047000.0,N
1646304335.6,286047001.0,N
1646304355.4,286047000.2,N
1646304375.3,286047000.0,N
1646304395.1,286047002.7,Y
1646304415.9,286046999.9,P
1646304435.7,286047002.0,P
1646304455.5,286047002.3,N
1646304475.4,286047002.0,N
1646304495.2,286047002.3,N
1646304515.1,286047002.7,N
1646304516.0,286047002.7,N
1646304535.8,286047002.1,N
1646304555.6,286047002.7,N
1646304575.5,286047002.6,N
1646304595.3,286047002.6,N
1646304615.1,286047002.4,N
1646304635.9,286046999.7,N
1646304655.2,286047002.3,N
1646304675.1,286047002.1,N
1646304676.0,286047002.1,N
1646304695.8,286047001.5,N
1646304715.6,286047002.4,N
1646304735.5,286047001.6,N
1646304755.3,286047004.4,Y
1646304775.2,286047002.5,P
1646304795.9,286047002.7,P
1646304815.7,286047002.4,P
1646304835.6,286047002.2,Y
1646304855.4,286046998.7,P
1646304875.2,286046998.6,N
1646304895.1,286047000.7,N
1646304896.0,286047000.7,N
1646304915.8,286047000.5,N
1646304935.7,286046999.7,N
1646304955.5,286047000.1,N
1646304975.3,286046998.6,N
1646304995.2,286046998.1,N
1646305015.0,286047000.7,N
1646305015.9,286047000.7,N
1646305035.7,286046999.6,N
1646305055.6,286046996.5,Y
1646305075.4,286046996.9,P
1646305095.3,286046999.0,N
1646305115.1,286047002.3,N
1646305116.0,286047002.3,N
1646305135.8,286047000.3,N
1646305155.7,286047000.4,N
1646305175.5,286047000.6,N
1646305195.3,286047000.4,N
